Location: Brantley
(31.5822°N, 86.2569°W)
Time: 16:59:49
(UTC+00:00)

Injun/Solrad 3 - Pass Details

Date: 20 February 2026
Orbit: 871 x 985 km, 66.8° (Epoch: 11 March)

Event Time Altitude Azimuth Distance (km) Brightness Sun altitude
Rises 16:28:56 0° 222° (SW) 3,445 11.1 42.5°
Reaches altitude 10° 16:31:30 10° 228° (SW) 2,510 10.4 42.8°
Maximum altitude 16:37:00 44° 300° (WNW) 1,200 8.6 43.4°
Drops below altitude 10° 16:42:35 10° 11° (NNE) 2,552 10.0 43.9°
Sets 16:45:14 0° 18° (NNE) 3,508 10.6 44.2°
